Regional Weather Roundup
Issued by NWS Little Rock, AR

Home | Current Version | Previous Version | Text Only | Print | Product List | Glossary On
Versions: 1 2 3 4 5 6 7 8 9 10 11 12 13 14 15 16 17 18 19 20 21 22 23 24 25 26 27 28 29 30 31 32 33 34 35 36 37 38 39
000
ASUS44 KLZK 260605
RWRLZK

WEATHER ROUNDUP FOR ARKANSAS
NATIONAL WEATHER SERVICE LITTLE ROCK AR
1200 AM CST FRI DEC 26 2014

NOTE: "FAIR" INDICATES FEW OR NO CLOUDS BELOW 12,000 FEET WITH NO
SIGNIFICANT WEATHER AND/OR OBSTRUCTIONS TO VISIBILITY.

ARZ001-003-010-029-260700-
NORTHWEST ARKANSAS

CITY           SKY/WX    TMP DP  RH WIND       PRES   REMARKS
FAYETTEVILLE   CLOUDY    46  33  60 S13       29.95S
6HR MIN TEMP:  45; 6HR MAX TEMP:  49;

FORT SMITH     MOCLDY    42  32  67 CALM      29.99S
6HR MIN TEMP:  41; 6HR MAX TEMP:  53;

HARRISON       MOCLDY    46  33  60 S12       29.98R
6HR MIN TEMP:  45; 6HR MAX TEMP:  47;

BENTONVILLE    CLOUDY    45  30  57 S10       29.94S
6HR MIN TEMP:  45; 6HR MAX TEMP:  48;

ROGERS         CLOUDY    46  32  58 S13       29.94R
6HR MIN TEMP:  46; 6HR MAX TEMP:  49;

SILOAM SPGS    MOCLDY    46  28  49 S9        29.95R
6HR MIN TEMP:  46; 6HR MAX TEMP:  50;

HIGHFILL       CLOUDY    45  33  63 S13       29.93S
6HR MIN TEMP:  45; 6HR MAX TEMP:  49;

$$

ARZ004-005-016-260700-
NORTH CENTRAL ARKANSAS

CITY           SKY/WX    TMP DP  RH WIND       PRES   REMARKS
BATESVILLE     CLEAR     46  36  66 S9G20     30.07S
6HR MIN TEMP:  46; 6HR MAX TEMP:  48;

FLIPPIN        MOCLDY    46  30  53 S8        30.00R
6HR MIN TEMP:  46; 6HR MAX TEMP:  48;

MTN HOME       MOCLDY    46  34  62 S9        30.00R
6HR MIN TEMP:  43; 6HR MAX TEMP:  47;

$$

ARZ040-041-260700-
WEST CENTRAL ARKANSAS

CITY           SKY/WX    TMP DP  RH WIND       PRES   REMARKS
MENA           PTCLDY    50  41  71 S8        30.03S
MOUNT IDA      MOCLDY    50  39  66 VRB5      30.02R
6HR MIN TEMP:  49; 6HR MAX TEMP:  53;

$$

ARZ009-017-025-026-028-260700-
NORTHEAST ARKANSAS

CITY           SKY/WX    TMP DP  RH WIND       PRES   REMARKS
CORNING        FAIR      45  36  70 S13       30.11R
JONESBORO      CLEAR     40  36  86 S12       30.11S
6HR MIN TEMP:  39; 6HR MAX TEMP:  47;

NEWPORT        PTCLDY    41  37  85 S8        30.11R
6HR MIN TEMP:  41; 6HR MAX TEMP:  48;

WALNUT RIDGE   CLEAR     43  34  70 S15       30.10R
6HR MIN TEMP:  41; 6HR MAX TEMP:  46;

BLYTHEVILLE    PTCLDY    41  35  79 S10       30.14S
6HR MIN TEMP:  40; 6HR MAX TEMP:  46;

$$

ARZ022-023-033-042-044-260700-
CENTRAL ARKANSAS

CITY           SKY/WX    TMP DP  RH WIND       PRES   REMARKS
LITTLE ROCK    PTCLDY    47  35  63 S10       30.10S
6HR MIN TEMP:  45; 6HR MAX TEMP:  50;

N LITTLE ROCK  PTCLDY    46  38  75 S8G16     30.10S
6HR MIN TEMP:  45; 6HR MAX TEMP:  50;

JACKSONVILLE   CLEAR     43  36  77 SE5       30.10R
6HR MIN TEMP:  43; 6HR MAX TEMP:  47;

SEARCY         CLEAR     42  36  79 S7        30.11S
6HR MIN TEMP:  41; 6HR MAX TEMP:  48;

HOT SPRINGS    CLEAR     47  38  71 S12       30.07S
6HR MIN TEMP:  47; 6HR MAX TEMP:  52;

RUSSELLVILLE   PTCLDY    45  35  68 E5        30.04S
6HR MIN TEMP:  44; 6HR MAX TEMP:  49;

CLINTON        FAIR      45  36  70 CALM      30.08S
$$

ARZ036-260700-
EAST ARKANSAS

CITY           SKY/WX    TMP DP  RH WIND       PRES   REMARKS
WEST MEMPHIS   PTCLDY    40  36  86 S9        30.13F
6HR MIN TEMP:  35; 6HR MAX TEMP:  43;

$$

ARZ050-053-066-070-073-260700-
SOUTHWEST ARKANSAS

CITY           SKY/WX    TMP DP  RH WIND       PRES   REMARKS
ARKADELPHIA    FAIR      42  39  89 S3        30.10S
6HR MIN TEMP:  42; 6HR MAX TEMP:  47;

CAMDEN         CLEAR     43  36  75 MISG      30.11S
TEXARKANA      CLEAR     45  40  82 SE7       30.07R
6HR MIN TEMP:  45; 6HR MAX TEMP:  52;

EL DORADO      PTCLDY    46  38  73 S9        30.11S
6HR MIN TEMP:  45; 6HR MAX TEMP:  50;

DE QUEEN       CLEAR     47  38  71 SE7       30.04S
6HR MIN TEMP:  42; 6HR MAX TEMP:  51;

$$

ARZ056-057-069-260700-
SOUTHEAST ARKANSAS

CITY           SKY/WX    TMP DP  RH WIND       PRES   REMARKS
PINE BLUFF     CLEAR     44  35  70 S10       30.12S
6HR MIN TEMP:  44; 6HR MAX TEMP:  49;

STUTTGART      CLEAR     43  36  75 SE10      30.12S
6HR MIN TEMP:  43; 6HR MAX TEMP:  50;

MONTICELLO     PTCLDY    41  35  79 S6        30.14S
6HR MIN TEMP:  40; 6HR MAX TEMP:  50;


$$





USA.gov is the U.S. government's official web portal to all federal, state and local government web resources and services.